Wind_Speed
7 7 6 5 5 4 3 3 2 1 1 3 5 6 9 12 14 13 11 11 9 5 2 1 2 2 5 12 8 7 12 16 14 11 9 12 7 7 13 14 15 10 15 10 5
7 7 6 5 5 4 4 3 3 2 1 1 2 2 2 2 4 6 9 7 8 6 4 2 9 12 9 7 7 10 14 12 13 8 5 7 5 9 10 14 11 8 11 11 5
8 7 7 6 5 4 3 3 2 2 1 1 2 3 4 6 6 2 4 5 5 6 7 6 12 4 1 4 1 7 10 12 8 9 6 6 7 5 5 15 8 7 7 10 6
7 7 7 6 5 4 3 2 2 1 1 1 1 1 3 5 4 6 2 3 4 5 7 6 8 7 3 7 15 11 10 8 10 10 6 4 9 8 4 10 8 4 6 11 11
7 7 6 5 4 3 3 2 2 1 2 1 1 2 2 1 4 5 4 3 5 6 7 9 11 6 8 16 9 5 7 4 5 7 9 6 8 8 12 9 8 4 6 8 11
7 6 6 5 4 3 2 2 1 1 0 1 1 3 3 2 2 3 2 2 5 7 8 9 9 3 10 3 10 10 13 5 2 1 6 6 12 9 12 8 11 6 3 6 10
7 6 5 5 4 3 2 2 1 1 0 0 2 3 4 5 4 1 1 2 5 8 10 9 1 8 4 9 3 10 8 4 2 3 2 4 10 7 5 7 9 6 7 6 8
8 6 5 4 3 3 2 2 1 0 1 2 2 4 3 3 2 2 2 5 6 4 6 9 8 9 8 4 6 12 13 12 13 7 4 6 11 8 11 3 4 7 4 10 6
8 6 5 5 3 2 2 1 1 1 2 2 2 2 3 3 2 1 1 7 7 3 2 4 7 5 1 9 17 15 22 14 12 8 6 2 12 8 3 3 4 6 7 7 15
8 6 5 4 3 2 1 1 2 2 3 5 3 3 6 3 4 2 3 12 5 5 2 10 1 2 2 5 12 13 19 19 16 10 11 2 13 11 7 2 6 8 6 8 6
9 7 4 3 2 1 2 4 2 2 6 5 8 5 13 1 2 2 2 10 6 5 3 4 7 8 8 5 3 8 10 8 7 12 2 5 12 9 7 7 5 4 3 3 9
9 8 5 4 2 2 2 3 3 7 7 11 8 12 5 8 4 1 6 6 6 4 3 6 11 10 4 5 8 9 7 7 7 3 5 7 4 11 11 6 5 7 6 8 3
10 9 6 4 4 3 3 1 3 6 10 8 12 11 19 11 6 8 5 12 7 6 5 10 14 9 6 6 6 8 9 4 4 4 4 10 15 12 16 15 11 8 6 7 6
11 10 6 6 5 4 3 1 3 5 6 5 9 7 13 7 7 12 12 11 4 6 11 13 7 4 3 5 8 7 8 5 5 10 14 16 17 14 23 18 12 12 11 9 6
11 9 8 7 7 6 5 3 2 1 3 7 9 3 12 8 7 16 12 10 7 10 8 9 7 1 0 5 5 6 9 12 12 13 15 21 16 12 26 21 21 16 11 6 5
10 9 9 8 9 9 6 4 4 1 7 13 13 13 13 13 10 12 11 9 8 12 7 15 8 9 9 7 8 11 8 10 16 20 17 25 24 24 27 23 29 22 17 14 9
11 10 8 8 8 7 8 9 3 6 9 16 13 9 17 11 10 16 10 12 10 7 11 8 15 17 11 12 5 6 10 7 6 5 3 15 11 15 19 27 31 24 14 4 3
12 11 10 9 9 10 12 13 6 7 11 5 13 13 12 17 13 19 12 12 15 11 16 18 20 23 13 8 3 4 6 3 2 3 10 7 2 19 20 29 22 14 8 2 7
12 11 9 10 12 11 15 13 12 6 10 6 8 9 17 15 19 22 19 15 16 20 17 10 3 10 7 7 5 2 8 10 11 13 8 9 16 16 15 15 13 9 10 10 11
12 10 9 12 15 14 17 21 19 13 8 5 4 4 9 12 15 16 12 11 15 16 18 11 3 5 9 11 7 10 8 7 5 2 5 8 7 20 14 11 11 13 12 11 15
10 5 8 2 9 14 19 22 13 6 12 13 9 12 11 15 15 18 23 17 15 18 16 14 10 15 11 8 11 10 14 10 9 7 1 3 5 12 12 14 14 11 13 18 22
9 7 8 10 10 12 18 14 8 8 7 12 18 19 16 14 15 12 8 9 8 12 9 7 7 10 14 17 6 6 8 8 2 7 20 10 2 5 8 9 11 15 19 20 23
12 17 13 11 16 12 4 11 14 21 16 9 12 10 10 16 14 11 6 5 10 15 9 12 5 5 11 16 14 11 17 12 10 13 17 7 9 12 4 3 8 11 15 21 24
10 9 7 18 12 16 17 16 10 20 19 15 11 16 12 13 15 12 12 8 9 12 14 13 13 9 8 14 15 17 14 10 11 15 15 20 16 17 18 9 9 10 12 13 16
13 14 10 13 17 15 14 14 14 7 13 12 17 13 11 10 11 14 13 11 9 11 15 16 17 22 22 21 16 19 20 19 19 20 19 19 21 22 29 22 16 15 16 13 19
23 28 19 22 15 13 11 10 11 13 8 11 12 13 12 15 15 16 18 12 23 15 13 11 10 13 13 14 18 22 22 21 22 23 26 26 26 21 22 22 16 19 21 22 29
21 24 23 25 21 11 7 9 8 9 15 11 10 9 11 16 18 21 13 9 3 4 10 11 6 9 13 13 17 21 24 23 23 22 23 17 6 10 14 16 20 21 23 25 24
Wind_Direction
357 352 349 341 337 335 337 348 9 17 265 267 263 262 262 259 256 254 255 249 254 252 244 190 190 214 130 74 43 10 284 310 34 37 25 40 31 57 23 78 70 40 39 27 52
359 354 353 348 345 338 338 348 7 30 43 53 51 43 14 294 260 247 242 243 232 221 204 159 109 73 74 44 331 278 295 2 24 11 8 24 40 21 58 70 91 69 36 2 3
359 353 351 349 348 342 338 340 344 347 346 16 44 57 53 75 84 107 217 224 207 202 203 202 123 143 184 308 22 332 311 346 18 4 17 50 8 63 81 54 8 30 15 337 5
359 354 349 344 345 340 336 336 321 302 289 325 356 86 93 80 61 63 99 168 178 190 193 200 134 119 313 317 332 250 308 332 328 345 343 21 94 93 61 62 16 51 357 329 343
357 354 347 340 339 336 332 340 342 313 291 285 248 183 167 252 54 58 63 124 165 172 181 188 105 55 335 316 339 319 322 333 326 324 110 80 88 83 84 76 50 66 342 325 331
351 351 344 338 334 324 322 327 359 36 344 295 222 193 197 249 9 48 45 118 149 162 169 175 102 4 302 351 331 309 310 296 140 193 82 128 116 86 88 106 83 49 311 304 323
343 344 344 335 327 309 306 311 343 20 164 205 191 186 207 312 76 21 146 143 146 154 152 32 235 216 232 267 282 274 278 221 188 227 195 145 142 84 130 145 125 97 49 229 303
333 336 336 336 327 308 294 277 253 231 169 168 186 191 243 341 29 123 153 150 163 168 139 181 248 248 222 275 287 274 266 275 179 153 140 100 115 105 144 169 131 104 123 148 140
321 327 329 331 332 311 294 256 221 224 194 175 188 245 293 319 291 154 132 70 19 38 51 205 258 266 177 281 292 297 265 234 169 167 158 170 137 130 200 274 278 144 166 195 195
310 315 315 318 332 327 249 182 177 178 187 159 155 211 318 277 197 146 125 147 269 9 65 38 74 18 331 254 281 343 8 167 172 142 124 59 162 146 156 133 166 168 192 197 178
299 301 298 297 316 309 224 211 202 231 181 193 152 69 328 126 38 325 151 159 151 215 269 300 314 278 300 283 323 349 347 5 107 152 222 214 164 164 163 154 173 164 150 146 190
291 290 283 274 277 262 230 272 245 251 228 233 224 142 246 261 227 283 224 165 163 202 279 262 261 325 258 316 313 329 316 309 272 238 319 221 243 224 188 175 170 162 144 141 58
286 282 273 254 259 265 233 149 248 259 273 243 220 202 207 232 224 257 264 141 193 288 266 252 287 241 311 324 301 323 295 301 306 331 305 276 260 203 181 176 146 156 194 241 284
279 277 261 247 233 237 229 185 255 287 274 257 204 235 196 250 225 198 264 138 190 270 298 243 229 251 309 279 280 55 352 333 318 317 303 292 302 206 186 171 183 195 199 211 232
274 269 260 232 231 236 215 200 246 303 323 182 184 182 198 156 128 192 247 183 240 225 294 225 277 302 65 318 261 269 305 294 291 283 283 269 270 195 185 166 174 182 183 191 268
270 259 254 237 227 227 214 177 167 142 250 172 195 184 200 188 170 195 222 194 220 262 260 265 282 253 217 268 283 299 317 312 291 265 256 263 252 175 179 185 176 184 202 230 291
265 258 244 235 228 225 204 170 103 231 146 177 197 187 193 208 204 195 203 224 232 248 250 242 251 247 219 239 276 277 310 336 342 333 243 303 130 166 229 189 194 193 191 177 271
263 254 245 233 222 209 194 172 208 223 252 241 190 184 189 209 215 207 214 216 237 241 271 282 305 215 203 185 235 174 327 297 298 330 307 337 342 166 173 173 170 168 162 124 210
263 258 243 230 219 204 199 182 213 230 345 353 194 201 204 210 221 208 216 227 247 239 221 257 98 127 164 191 189 299 284 284 325 309 309 269 105 127 158 169 178 176 185 189 231
260 257 246 229 212 199 200 217 228 244 316 284 219 230 245 248 235 201 212 242 246 256 204 193 284 247 270 212 252 299 285 290 272 288 277 342 129 143 147 155 173 196 224 244 260
255 235 265 232 204 218 220 230 235 301 248 254 235 274 277 286 288 228 234 239 244 213 221 215 240 259 215 220 275 268 228 240 264 325 253 356 113 159 169 186 201 219 244 251 260
231 152 202 247 244 235 239 233 210 256 291 268 263 246 262 277 303 274 301 207 219 202 193 184 219 249 254 263 304 246 224 248 293 297 291 320 229 206 280 257 260 268 255 261 265
221 188 189 233 232 233 244 272 262 257 255 269 263 273 255 257 294 277 292 246 203 210 202 205 202 288 295 266 262 279 245 239 266 273 258 251 263 301 178 177 254 260 264 270 276
217 193 230 234 250 229 250 251 269 241 253 239 251 247 239 260 247 271 248 291 264 233 228 228 232 237 242 268 300 306 293 280 240 244 255 246 257 265 298 290 245 253 264 275 287
199 180 213 186 208 232 241 249 260 262 239 254 263 259 235 289 239 253 239 246 243 252 267 269 263 243 248 257 282 287 284 283 286 283 284 282 280 284 281 277 264 258 261 268 287
207 207 199 201 219 205 201 236 235 236 239 250 250 234 229 257 247 258 248 250 248 254 239 239 256 243 253 259 269 281 280 285 279 278 279 280 277 268 258 261 266 269 273 284 295
230 227 228 219 229 222 238 255 261 274 248 253 248 218 240 244 222 228 225 219 311 248 221 225 214 237 253 258 281 280 265 273 281 273 271 269 215 242 260 279 288 295 305 311 313
Height
3168 3167 3165 3164 3163 3162 3162 3161 3160 3160 3160 3160 3161 3161 3161 3161 3162 3163 3165 3168 3169 3171 3173 3175 3177 3178 3180 3179 3181 3183 3185 3182 3181 3179 3180 3180 3180 3179 3176 3172 3173 3174 3176 3178 3178
3168 3166 3165 3164 3163 3162 3161 3160 3160 3160 3160 3160 3160 3160 3160 3160 3160 3161 3164 3165 3167 3169 3171 3173 3174 3177 3177 3178 3179 3181 3182 3183 3181 3180 3180 3181 3181 3180 3180 3174 3174 3174 3176 3177 3177
3168 3166 3165 3163 3162 3162 3161 3161 3160 3160 3160 3160 3160 3160 3160 3160 3161 3161 3162 3164 3165 3167 3169 3171 3170 3175 3177 3178 3178 3181 3182 3181 3181 3179 3179 3180 3180 3179 3178 3177 3173 3175 3178 3178 3179
3168 3166 3165 3163 3162 3161 3161 3161 3161 3160 3160 3161 3160 3161 3160 3161 3163 3161 3162 3163 3164 3166 3168 3171 3172 3173 3174 3175 3177 3180 3180 3179 3178 3178 3178 3178 3179 3178 3179 3181 3177 3177 3178 3178 3179
3168 3166 3165 3164 3163 3162 3161 3160 3161 3160 3160 3160 3160 3160 3161 3162 3162 3162 3163 3164 3164 3166 3168 3170 3171 3173 3174 3175 3175 3177 3177 3177 3178 3177 3177 3179 3179 3179 3181 3182 3180 3178 3179 3179 3179
3168 3166 3165 3163 3162 3161 3160 3160 3160 3160 3160 3160 3160 3160 3161 3161 3162 3162 3163 3164 3165 3166 3167 3170 3170 3174 3175 3175 3176 3176 3176 3176 3177 3178 3178 3179 3180 3180 3182 3182 3185 3181 3180 3180 3178
3167 3166 3164 3163 3162 3161 3160 3160 3159 3160 3160 3160 3160 3160 3161 3162 3162 3163 3164 3165 3165 3167 3168 3170 3172 3173 3174 3172 3173 3174 3175 3175 3176 3177 3178 3180 3180 3181 3182 3182 3183 3186 3185 3181 3180
3166 3165 3164 3162 3161 3161 3160 3159 3159 3159 3160 3159 3160 3160 3161 3162 3162 3163 3164 3164 3166 3166 3165 3169 3172 3172 3172 3172 3171 3171 3173 3173 3176 3176 3178 3180 3181 3181 3180 3179 3182 3185 3186 3187 3186
3165 3163 3163 3162 3161 3160 3159 3159 3159 3159 3159 3159 3160 3161 3160 3162 3162 3163 3163 3163 3165 3166 3167 3169 3169 3170 3171 3171 3170 3171 3170 3173 3174 3175 3176 3178 3179 3180 3178 3177 3179 3183 3183 3183 3185
3163 3162 3161 3161 3160 3159 3159 3158 3158 3158 3159 3159 3160 3163 3162 3162 3162 3162 3163 3164 3168 3168 3169 3170 3170 3170 3170 3171 3171 3170 3167 3169 3171 3174 3175 3177 3177 3179 3176 3175 3177 3179 3181 3181 3182
3161 3160 3160 3159 3159 3158 3158 3158 3160 3160 3158 3159 3159 3161 3161 3160 3162 3162 3163 3165 3167 3170 3169 3169 3171 3169 3169 3172 3172 3170 3170 3170 3172 3172 3174 3176 3176 3176 3175 3173 3175 3175 3177 3180 3180
3159 3158 3158 3158 3158 3157 3157 3157 3157 3158 3157 3157 3157 3158 3165 3162 3163 3163 3164 3166 3167 3168 3169 3172 3169 3170 3172 3171 3170 3171 3170 3170 3171 3170 3173 3174 3176 3172 3173 3172 3172 3173 3174 3177 3181
3156 3155 3156 3156 3156 3156 3156 3155 3156 3155 3154 3155 3155 3156 3160 3161 3161 3163 3164 3165 3166 3168 3168 3170 3171 3171 3170 3171 3171 3172 3171 3171 3171 3171 3172 3174 3174 3173 3173 3172 3172 3173 3173 3174 3177
3153 3153 3153 3154 3156 3154 3153 3154 3155 3155 3153 3152 3152 3154 3157 3160 3160 3162 3163 3165 3166 3167 3168 3169 3169 3169 3170 3170 3170 3170 3170 3170 3169 3169 3170 3172 3169 3168 3168 3171 3172 3172 3173 3173 3173
3150 3150 3150 3151 3152 3152 3153 3152 3153 3155 3154 3151 3152 3155 3156 3159 3160 3161 3163 3164 3164 3165 3169 3168 3168 3167 3169 3170 3169 3170 3169 3168 3168 3169 3169 3165 3168 3165 3164 3168 3168 3169 3170 3170 3170
3146 3147 3147 3148 3149 3150 3151 3151 3153 3156 3151 3150 3150 3152 3155 3157 3159 3161 3162 3163 3165 3164 3164 3164 3166 3166 3168 3167 3168 3168 3168 3167 3165 3165 3164 3157 3162 3162 3162 3164 3167 3168 3168 3169 3169
3143 3143 3144 3145 3147 3148 3150 3150 3153 3152 3147 3148 3148 3150 3153 3156 3157 3159 3162 3163 3164 3164 3163 3163 3162 3162 3165 3166 3167 3167 3167 3166 3165 3161 3162 3155 3152 3159 3162 3162 3162 3165 3167 3168 3167
3139 3139 3141 3142 3143 3145 3147 3149 3149 3145 3146 3145 3144 3147 3151 3154 3155 3156 3158 3160 3161 3162 3162 3161 3159 3158 3160 3164 3165 3166 3167 3168 3170 3169 3161 3158 3156 3159 3158 3161 3164 3166 3168 3168 3168
3135 3136 3137 3139 3140 3142 3144 3145 3142 3143 3146 3144 3144 3146 3147 3149 3151 3153 3153 3155 3156 3157 3159 3159 3160 3159 3161 3162 3166 3166 3166 3167 3166 3165 3164 3159 3160 3161 3162 3164 3165 3166 3167 3167 3166
3131 3132 3134 3135 3136 3138 3140 3138 3138 3141 3143 3143 3143 3144 3146 3147 3150 3150 3151 3153 3153 3154 3153 3156 3158 3160 3160 3160 3163 3163 3165 3165 3165 3166 3165 3158 3158 3159 3162 3163 3165 3164 3164 3165 3164
3128 3129 3130 3131 3133 3135 3134 3134 3137 3140 3141 3142 3142 3141 3143 3144 3144 3146 3145 3148 3149 3148 3149 3152 3155 3158 3157 3158 3159 3160 3161 3162 3163 3163 3163 3163 3163 3161 3161 3161 3162 3161 3160 3158 3156
3125 3127 3129 3131 3132 3131 3131 3133 3136 3137 3138 3139 3140 3142 3141 3141 3140 3141 3144 3142 3144 3144 3145 3148 3152 3154 3156 3157 3157 3157 3157 3159 3159 3162 3161 3163 3163 3161 3161 3160 3158 3157 3156 3155 3153
3121 3124 3125 3126 3127 3128 3130 3131 3133 3135 3135 3137 3138 3139 3139 3139 3141 3139 3140 3139 3141 3142 3143 3145 3150 3151 3152 3155 3154 3154 3155 3154 3156 3158 3158 3160 3161 3160 3158 3156 3154 3152 3150 3148 3146
3119 3121 3123 3123 3124 3125 3126 3126 3128 3129 3132 3133 3133 3134 3135 3136 3137 3137 3139 3138 3137 3141 3143 3145 3147 3149 3151 3152 3154 3152 3152 3152 3153 3154 3154 3154 3156 3156 3153 3150 3148 3145 3144 3141 3139
3113 3115 3113 3118 3121 3119 3124 3124 3124 3126 3127 3130 3131 3131 3132 3134 3134 3135 3137 3138 3137 3138 3140 3142 3143 3145 3145 3146 3147 3148 3147 3147 3147 3149 3149 3150 3150 3151 3147 3143 3141 3140 3138 3137 3136
3106 3105 3110 3112 3113 3115 3118 3120 3121 3122 3126 3128 3127 3129 3131 3132 3132 3132 3132 3134 3134 3133 3134 3135 3138 3139 3141 3143 3144 3143 3143 3144 3144 3144 3143 3143 3144 3140 3137 3135 3136 3136 3135 3136 3132
3102 3105 3106 3109 3110 3113 3116 3118 3119 3122 3121 3124 3125 3124 3123 3120 3122 3124 3127 3131 3132 3129 3131 3134 3135 3136 3137 3140 3139 3138 3138 3139 3139 3138 3138 3135 3136 3134 3131 3130 3129 3129 3130 3128 3127